Regional Weather Roundup
Issued by NWS

Home | Current Version | Previous Version | Text Only | Print | Product List | Glossary Off
Versions: 1 2 3 4 5 6 7 8 9 10 11 12 13 14 15 16 17 18 19 20 21 22 23 24 25 26 27 28 29 30 31 32 33 34 35 36 37 38 39 40 41 42 43 44 45 46 47 48 49 50

000
ASUS43 KFSD 220710
RWRSD

WEATHER ROUNDUP FOR SOUTH DAKOTA
NATIONAL WEATHER SERVICE SIOUX FALLS SD
200 AM CDT FRI SEP 22 2017

NOTE: "FAIR" INDICATES FEW OR NO CLOUDS BELOW 12,000 FEET WITH NO
SIGNIFICANT WEATHER AND/OR OBSTRUCTIONS TO VISIBILITY.


SDZ001>005-009-010-012>017-220800-
NORTHWEST AND NORTH CENTRAL SOUTH DAKOTA

CITY           SKY/WX    TMP DP  RH WIND       PRES   REMARKS
BUFFALO          N/A     52  35  52 N17       29.77R
FAITH            N/A     54  44  69 N22       29.72F
MOBRIDGE       CLEAR     61  53  75 N13       29.67F
$$

SDZ012>016-024>037-041>051-057-063-072>074-220800-
SOUTHWEST AND SOUTH CENTRAL SOUTH DAKOTA

CITY           SKY/WX    TMP DP  RH WIND       PRES   REMARKS
RAPID CTY ARPT NOT AVBL
PIERRE         CLEAR     65  58  78 CALM      29.59F
CUSTER         CLOUDY    49  37  63 N10       29.79F
ELLSWORTH AFB  CLEAR     54  39  58 NW23G31   29.76F
PHILIP         LGT RAIN  61  48  62 N14       29.62F
PINE RIDGE     CLEAR     57  41  55 N7        29.68S
SPEARFISH      FAIR      43  39  87 SW5       29.87S
WINNER         FAIR      77  66  68 SE21G29   29.59S
$$

SDZ004>011-016>023-039-040-220800-
NORTHEAST SOUTH DAKOTA

CITY           SKY/WX    TMP DP  RH WIND       PRES   REMARKS
ABERDEEN       CLOUDY    68  66  93 E6        29.66S
WATERTOWN      CLEAR     73  71  93 SE5       29.69F
BROOKINGS      CLEAR     73  71  93 SE14      29.71F
SISSETON         N/A     70  64  81 CALM      29.68F
$$

SDZ017-020-022-023-036>040-048>070-220800-
SOUTHEAST SOUTH DAKOTA

CITY           SKY/WX    TMP DP  RH WIND       PRES   REMARKS
SIOUX FALLS    CLEAR     80  73  79 S21       29.72S
HURON          CLEAR     74  71  91 SE9       29.62F
CHAMBERLAIN    CLEAR     74  71  88 SE12      29.60F
MITCHELL       CLEAR     79  72  79 S20G28    29.64S
YANKTON        CLEAR     80  73  79 S22G29    29.69S
$$

ABBREVIATIONS USED IN REMARKS
   TC - TEMPERATURE IN CELSIUS
  WCI - WIND CHILL INDEX
   HX - HEAT INDEX
  VSB - VISIBILITY




USA.gov is the U.S. government's official web portal to all federal, state and local government web resources and services.